RH
27 27 28 30 33 34 36 39 42 44 46 49 53 59 70 81 91 98 100 100 100 100 100 100 100 100 100 99 96 94 94 94 95 98 99 99 99 100 100 99 100 100
27 28 29 29 31 34 35 38 40 44 46 49 55 62 69 77 86 94 99 100 100 100 100 100 100 99 99 95 89 85 84 87 92 97 99 100 100 99 99 99 100 100
28 29 30 30 31 32 35 38 40 44 47 50 55 61 68 77 85 93 99 100 99 100 100 100 100 99 97 92 87 83 83 89 95 99 100 99 100 94 86 86 89 92
29 29 30 31 32 32 33 36 41 45 48 51 55 61 68 79 88 94 99 100 100 100 100 99 100 100 97 92 89 86 87 92 97 100 99 100 99 86 72 70 73 77
30 30 31 31 33 33 33 34 40 45 48 51 56 61 68 79 90 97 99 100 99 99 100 100 100 99 98 94 90 90 92 94 97 97 98 100 96 82 69 67 67 68
31 31 31 32 33 34 34 34 38 43 47 51 55 62 72 83 93 99 100 100 99 99 100 100 100 100 100 96 92 92 95 94 94 95 97 99 92 78 69 67 67 65
32 32 32 33 34 35 35 34 38 43 47 51 55 63 76 87 96 99 100 100 99 99 100 99 100 100 100 98 93 93 95 92 90 92 93 91 82 73 68 67 66 60
33 34 33 35 35 36 36 36 39 44 48 52 57 65 76 87 96 99 100 100 99 100 100 99 100 99 99 98 93 92 93 88 84 85 85 81 74 70 68 64 60 54
34 34 34 35 37 38 38 38 40 45 49 53 58 67 78 89 97 100 100 100 100 100 100 99 100 100 99 97 93 91 90 85 81 79 78 75 71 69 65 57 52 49
35 35 35 36 37 39 40 40 42 46 50 54 60 71 84 93 98 100 100 100 100 99 99 100 100 99 99 97 92 89 87 83 80 78 77 74 70 66 58 49 46 42
36 36 36 37 39 40 41 41 43 46 51 54 61 73 88 96 99 99 100 100 100 100 99 100 100 99 98 96 92 88 85 82 79 77 76 70 64 60 52 44 37 31
37 37 37 38 40 41 41 42 44 47 52 56 62 76 90 98 99 100 100 100 99 100 100 100 100 99 98 95 91 88 84 81 78 75 71 63 56 51 44 37 31 26
38 38 39 39 41 42 41 42 44 48 54 58 65 78 90 96 99 100 100 100 100 99 100 100 100 99 98 94 91 88 85 82 79 74 67 58 48 38 30 28 27 26
39 39 40 40 42 42 41 42 45 50 55 60 67 78 89 96 99 100 100 99 100 100 100 100 99 98 97 94 91 89 86 82 79 75 68 55 40 30 25 24 28 35
42 41 40 41 42 42 41 44 49 53 58 62 69 80 91 98 99 100 100 100 100 100 100 99 99 98 97 95 93 89 84 80 78 74 64 48 35 29 28 33 44 56
44 42 41 42 42 42 43 46 52 56 61 66 73 85 96 100 100 100 100 100 100 100 100 99 99 99 98 96 92 86 81 78 77 68 52 39 34 33 38 49 62 73
46 43 43 43 42 42 44 49 55 60 64 70 78 90 98 100 100 100 100 100 100 100 100 99 98 99 98 95 88 83 79 76 70 57 44 40 41 45 53 65 75 82
47 44 44 43 43 44 47 52 58 62 65 71 80 91 98 99 100 100 100 100 99 100 100 99 98 99 98 92 86 82 78 70 59 51 48 49 52 58 68 78 84 88
47 45 45 45 45 47 50 55 59 62 66 71 80 91 98 99 100 100 100 100 99 100 100 99 98 98 96 91 85 81 76 67 59 58 59 60 63 70 79 85 90 92
47 46 46 47 47 49 53 57 61 64 67 72 80 90 97 99 100 100 100 100 100 100 100 99 98 97 95 90 84 80 78 72 69 69 68 69 74 81 87 91 94 95
47 47 48 49 50 51 55 60 63 66 69 73 80 91 98 100 100 100 100 100 100 100 100 99 98 96 94 90 84 81 79 76 74 73 73 76 82 88 93 96 96 93
48 49 50 52 52 53 57 62 65 68 71 76 84 94 99 100 99 100 100 99 100 100 99 99 98 96 93 89 85 83 80 76 75 75 76 81 87 94 97 97 95 91
50 52 54 55 55 56 60 65 69 71 75 80 87 95 99 100 100 100 100 100 100 100 100 100 98 96 94 89 85 82 78 75 75 75 79 86 93 98 98 96 93 89
53 55 58 58 58 60 64 68 73 75 78 83 91 97 99 100 100 100 100 100 100 99 100 100 99 97 94 89 83 78 73 73 75 78 84 91 97 99 98 95 91 88
56 59 60 60 61 63 66 70 76 80 83 88 95 99 100 100 100 100 100 100 100 100 100 99 99 98 93 86 80 74 71 75 80 84 90 96 99 99 97 94 90 87
62 64 64 63 65 66 67 72 78 83 86 91 96 100 100 100 100 100 100 100 100 100 100 99 100 97 88 81 77 74 75 81 86 90 94 98 99 98 96 92 89 86
Wind_Speed
19 21 21 21 21 21 22 22 22 22 22 21 20 19 17 16 15 15 16 16 16 16 15 15 15 16 16 17 18 20 22 24 24 25 26 28 30 30 30 30 31 32
19 20 22 22 22 23 23 23 22 22 22 22 21 20 19 18 18 16 17 17 18 17 16 15 15 16 16 16 17 18 19 20 21 22 24 26 26 26 26 27 29 29
18 20 22 22 23 24 24 24 23 22 22 22 22 21 20 19 18 17 17 18 19 18 17 16 16 16 16 16 16 17 17 17 17 18 21 23 23 23 23 24 25 27
18 20 22 23 23 24 25 25 24 23 22 22 22 21 21 19 18 17 17 18 19 19 18 17 17 16 16 16 16 16 17 17 17 17 19 21 21 20 21 21 22 23
19 20 22 23 24 24 25 25 25 24 23 22 21 20 19 18 17 16 16 18 19 19 19 18 17 17 16 16 16 16 17 17 18 18 18 19 20 20 20 20 21 21
20 20 22 24 24 24 25 25 25 25 24 23 21 19 18 16 16 16 16 18 19 20 20 19 17 17 17 17 16 17 17 18 19 19 19 19 20 21 21 21 21 21
20 21 23 24 25 25 25 26 26 25 25 23 21 19 17 16 16 16 17 18 20 20 20 19 18 17 17 16 16 17 17 18 18 19 19 19 20 21 22 22 22 22
21 22 24 25 25 25 25 26 26 26 25 24 21 19 17 17 17 17 18 19 20 21 20 19 18 17 16 16 16 17 17 17 18 18 19 20 21 21 22 22 22 22
23 23 25 25 25 25 25 26 26 26 25 24 22 19 17 17 17 18 19 20 20 20 20 19 18 17 16 16 16 17 17 17 18 19 19 20 21 22 22 22 23 22
24 24 25 26 25 25 26 26 26 26 25 24 22 19 17 16 17 19 20 20 20 20 20 18 17 16 16 16 16 16 17 18 19 20 20 21 21 21 22 23 23 23
26 25 26 26 26 25 26 26 27 26 26 25 22 19 17 17 17 19 19 20 20 19 19 18 17 16 16 16 16 17 17 18 19 20 21 21 21 21 22 23 23 23
27 27 26 26 26 26 26 27 27 27 26 25 23 19 18 17 18 19 19 19 19 19 18 17 16 16 16 16 16 17 18 19 20 20 20 21 22 22 23 24 24 23
29 28 27 27 27 26 27 28 28 28 26 25 23 20 18 18 18 19 19 19 19 18 18 17 16 16 16 17 17 18 19 20 20 20 21 22 22 23 23 23 23 22
30 28 27 27 27 27 27 28 28 28 27 25 23 21 19 18 18 19 19 19 18 18 17 16 16 16 17 17 18 19 20 20 21 21 22 23 24 23 23 23 22 21
31 28 28 28 27 27 28 29 28 28 27 26 23 20 19 18 19 19 19 19 18 18 17 16 16 17 17 18 18 19 20 21 21 21 23 24 24 24 24 22 21 19
32 29 28 28 27 28 29 29 28 27 27 25 22 20 19 18 19 20 19 19 18 18 17 17 17 17 17 17 18 19 20 21 22 23 24 25 25 25 24 22 20 19
32 30 28 28 28 28 29 29 28 27 26 25 22 19 18 18 19 20 20 19 19 18 18 17 17 17 17 18 19 20 21 22 23 25 25 25 24 24 23 21 20 19
31 30 28 28 28 28 29 28 28 27 26 25 22 19 18 18 19 20 20 19 19 19 18 18 17 16 17 19 20 21 22 23 24 25 25 25 24 23 22 21 19 19
30 30 29 29 29 28 28 28 27 27 26 24 21 19 19 19 19 20 20 20 19 19 18 18 17 17 18 21 22 24 24 25 25 25 24 24 24 23 22 21 20 19
29 30 30 30 29 28 28 28 27 26 25 23 22 20 20 19 19 20 20 20 19 18 18 18 18 18 20 23 24 25 26 26 25 25 24 24 24 23 22 21 19 19
29 31 31 30 29 29 28 28 27 26 25 23 22 21 20 19 19 20 21 20 19 18 19 19 19 20 23 25 26 27 26 26 26 25 25 25 24 23 22 21 20 19
30 31 32 30 29 29 29 28 27 26 25 23 22 21 20 20 20 21 21 20 19 19 19 19 20 22 24 26 27 27 27 27 26 26 26 25 24 23 22 22 21 20
31 32 31 30 29 29 29 28 27 26 24 23 22 21 21 20 21 22 22 21 20 19 19 20 22 24 26 27 28 28 28 28 27 27 26 25 24 23 23 22 22 21
32 32 31 30 29 29 28 28 27 25 24 23 22 21 20 21 21 22 23 21 20 20 20 21 23 25 27 29 29 29 29 28 28 27 26 25 24 24 24 23 22 21
31 31 31 30 29 28 28 28 27 25 24 23 22 21 21 22 23 24 24 22 21 21 21 22 24 27 29 30 30 30 29 29 28 28 27 26 25 25 25 24 23 21
31 31 30 29 27 27 27 28 27 26 25 24 22 21 22 23 25 25 24 23 23 23 23 24 26 28 30 30 30 30 30 30 29 28 27 26 26 26 26 24 23 21
Wind_Direction
317 313 312 312 311 308 307 306 304 301 298 294 291 288 284 278 268 260 262 266 267 265 261 256 254 255 257 258 260 262 261 257 252 244 238 234 235 238 239 240 240 238
313 310 309 309 310 308 306 304 301 299 296 293 290 286 280 275 269 260 259 263 268 269 268 264 260 258 259 262 264 264 263 261 255 246 236 232 234 238 239 238 238 238
308 306 306 306 308 308 307 304 302 299 295 290 287 283 278 274 270 261 257 262 268 270 270 268 265 263 264 266 268 267 265 263 256 246 235 231 231 232 231 230 232 235
303 302 302 303 304 306 306 304 302 298 294 288 284 280 276 271 268 262 257 261 268 271 272 272 269 268 269 270 270 269 265 260 254 244 235 230 229 228 227 226 225 227
297 298 299 299 300 303 304 304 302 298 295 289 284 280 275 269 265 261 258 260 266 270 271 272 271 270 271 272 272 268 264 258 252 244 235 229 227 226 225 225 224 224
292 293 295 296 297 300 302 303 302 299 296 291 286 281 275 268 262 258 257 258 263 267 269 270 271 270 269 270 270 267 262 255 250 245 236 228 226 225 223 223 227 227
288 290 291 293 294 296 299 301 301 299 295 291 286 280 273 266 259 254 254 256 259 263 266 269 270 269 268 266 265 264 260 253 247 243 237 230 225 225 224 224 226 225
283 286 288 289 291 293 296 298 298 297 294 290 285 279 271 261 255 252 251 254 258 262 266 268 268 268 266 264 262 261 258 252 246 240 237 232 228 228 228 225 222 221
279 283 286 287 288 290 292 295 296 295 292 289 283 277 270 258 251 250 251 254 258 262 265 266 266 266 265 262 260 257 254 249 244 240 237 235 234 232 228 223 218 214
275 280 283 285 286 287 290 292 293 293 290 287 282 274 267 257 250 250 252 255 257 260 264 265 265 263 261 259 256 254 250 245 242 240 238 237 236 233 226 219 213 209
272 276 280 283 284 285 288 290 292 292 290 286 280 272 264 257 251 251 252 255 257 258 260 262 261 259 257 255 252 249 246 242 239 239 238 235 231 227 221 215 209 205
268 274 278 280 282 283 286 290 291 291 290 286 280 270 262 256 252 252 253 255 257 258 259 258 257 255 253 251 248 245 242 240 237 235 233 229 222 216 212 209 206 203
266 272 276 278 280 281 285 289 291 291 289 284 278 269 260 254 252 253 254 255 257 257 258 257 255 253 250 247 245 242 240 237 233 229 226 221 213 208 205 203 202 202
264 269 274 276 278 281 285 288 289 289 287 282 275 268 259 253 250 252 255 256 257 256 255 255 254 252 249 246 243 240 237 233 229 224 219 214 208 205 204 203 201 203
262 267 272 275 278 281 284 286 286 286 284 280 273 266 258 251 249 251 254 256 257 256 255 254 253 251 248 244 242 238 232 227 222 218 214 211 208 206 205 205 208 212
261 266 271 275 278 280 282 283 283 282 281 278 272 264 257 251 248 251 255 256 257 257 256 254 252 250 247 242 237 231 227 222 216 212 209 209 209 208 209 211 216 222
261 265 270 273 275 278 280 281 281 280 279 276 271 264 257 251 249 251 254 256 256 256 256 253 251 249 245 238 230 224 221 218 213 209 208 209 210 212 216 219 223 227
260 262 266 269 271 275 278 279 279 278 278 276 272 265 257 251 250 252 254 255 255 255 254 251 248 244 239 232 224 218 214 212 211 211 211 212 214 216 220 223 227 230
258 260 263 266 269 273 275 276 277 277 278 277 273 266 257 250 248 250 254 255 255 255 254 251 246 238 232 227 220 215 212 210 212 215 216 217 218 220 224 227 229 231
255 258 261 264 267 271 273 274 275 276 277 276 272 265 257 251 249 250 253 256 256 254 252 248 241 233 227 223 218 214 213 212 213 215 217 219 222 224 227 229 228 227
254 257 259 262 267 271 272 272 273 274 275 275 271 266 260 253 250 250 252 254 254 252 248 243 236 229 224 220 217 215 214 214 214 215 217 219 223 225 227 226 224 221
254 257 259 263 268 272 272 272 272 274 275 274 270 264 258 252 248 249 251 251 250 248 246 240 233 226 222 219 217 217 216 216 216 217 218 221 223 225 225 223 220 217
256 257 260 264 269 272 274 273 273 274 275 273 269 263 258 252 249 249 251 251 247 244 241 236 230 224 220 219 219 218 218 218 218 219 220 222 224 224 223 220 217 215
260 260 262 266 271 274 276 275 274 273 274 273 269 263 256 250 248 249 250 249 245 241 236 232 228 223 220 219 219 219 220 220 221 222 223 224 225 223 220 217 215 213
264 263 264 268 272 276 278 277 274 272 273 272 268 261 252 246 245 247 248 246 242 237 232 228 225 222 219 219 220 220 221 222 223 224 224 226 225 222 218 215 213 211
266 265 266 270 274 277 279 277 273 272 272 270 266 259 249 244 244 245 246 244 239 234 228 224 222 221 219 220 222 222 223 225 225 225 226 227 225 222 218 215 212 211